Home   Weather   Fürstenwalde/Spree   Past weeks

Flag for Germany Past Weather in Fürstenwalde/Spree, Brandenburg, Germany — Yesterday and Last 2 Weeks

Now
64 °F

Scattered clouds.


Feels Like: 64 °F
Forecast: 54 / 68 °F
Wind: 10 mph from Southwest

Location: Berlin-Schoenefeld

Current Time: Aug 19, 2017 at 1:34:14 pm

Latest Report: Aug 19, 2017 at 12:50 pm


Visibility: N/A

Pressure: 30.01 "Hg

Humidity: 64%

Dew Point: 52 °F

Location of Fürstenwalde/SpreeLocation

Past Weather in Fürstenwalde/Spree — Graph

°F

Fürstenwalde/Spree Temperature Yesterday

Maximum temperature yesterday: 79 °F (at 3:20 pm)
Minimum temperature yesterday: 63 °F (at 5:50 am)
Average temperature yesterday: 71 °F

High & Low Weather Summary for the Past Weeks

 TemperatureHumidityPressure
High81 °F (Aug 9, 5:20 pm)100% (Aug 6, 2:20 am)30.24 "Hg (Aug 6, 2:20 am)
Low50 °F (Aug 7, 4:50 am)31% (Aug 7, 4:50 pm)29.74 "Hg (Aug 18, 8:01 pm)
Average67 °F72%30.02 "Hg
* Reported Aug 4 12:20 pm — Aug 19 12:20 pm, Fürstenwalde/Spree. Weather by CustomWeather, © 2017

Note: Actual official high and low records may vary slightly from our data, if they occured in-between our weather recording intervals... More about our weather records

Advertising

Fürstenwalde/Spree Weather History for the Previous 24 Hours

Scroll right to see more
 ConditionsComfort  
Time TempWeatherWind HumidityBarometerVisibility
12:20 pm
Sat, Aug 19
64 °FBroken clouds.8 mph64%30.01 "HgN/A
11:50 am63 °FBroken clouds.14 mph68%30.01 "HgN/A
11:20 am63 °FPartly sunny.12 mph73%30.01 "HgN/A
10:50 am63 °FPartly sunny.15 mph77%30.01 "HgN/A
10:20 am61 °FPartly sunny.13 mph77%30.01 "HgN/A
9:50 am61 °FPartly sunny.14 mph83%29.98 "HgN/A
8:50 am61 °FBroken clouds.12 mph83%29.98 "HgN/A
8:20 am61 °FPartly sunny.10 mph88%29.95 "HgN/A
7:50 am61 °FPartly sunny.13 mph88%29.95 "HgN/A
7:20 am61 °FPartly sunny.10 mph88%29.95 "HgN/A
6:50 am61 °FBroken clouds.12 mph94%29.92 "HgN/A
6:20 am61 °FPartly sunny.6 mph94%29.92 "HgN/A
5:50 am61 °FPassing clouds.8 mph94%29.92 "HgN/A
5:20 am61 °FPartly cloudy.7 mph94%29.89 "HgN/A
4:50 am61 °FPartly cloudy.8 mph94%29.89 "HgN/A
4:20 am61 °FPassing clouds.9 mph94%29.89 "HgN/A
3:50 am61 °FPassing clouds.7 mph100%29.89 "HgN/A
3:20 am61 °FPartly cloudy.7 mph100%29.89 "HgN/A
2:50 am61 °FPassing clouds.7 mph94%29.86 "HgN/A
2:20 am61 °FPartly cloudy.7 mph94%29.86 "HgN/A
1:50 am63 °FClear.8 mph94%29.86 "Hg10 mi
1:20 am63 °FPartly cloudy.9 mph94%29.86 "HgN/A
12:50 am63 °FLight rain. Partly cloudy.15 mph94%29.83 "HgN/A
12:20 am66 °FLight rain. Partly cloudy.16 mph88%29.83 "HgN/A
11:50 pm
Fri, Aug 18
66 °FLight rain. Passing clouds.9 mph94%29.83 "HgN/A
11:20 pm66 °FLight rain. Partly cloudy.9 mph94%29.83 "HgN/A
10:50 pm64 °FPartly cloudy.6 mph100%29.80 "HgN/A
10:20 pm66 °FPassing clouds.6 mph94%29.80 "HgN/A
9:50 pm66 °FPartly cloudy.2 mph94%29.80 "HgN/A
9:20 pm66 °FSprinkles. Passing clouds.2 mph94%29.80 "HgN/A
8:50 pm66 °FSprinkles. Passing clouds.9 mph94%29.80 "HgN/A
8:30 pm64 °FThunderstorms. Passing clouds.28 mph94%29.83 "HgN/A
8:01 pm77 °FThunderstorms. Partly sunny.7 mph69%29.74 "HgN/A
7:20 pm75 °FSunny.1 mph74%29.80 "Hg10 mi
6:50 pm77 °FBroken clouds.5 mph69%29.80 "HgN/A
6:20 pm77 °FBroken clouds.5 mph69%29.80 "HgN/A
5:50 pm79 °FPassing clouds.7 mph61%29.83 "HgN/A
5:20 pm79 °FPassing clouds.7 mph61%29.83 "HgN/A
4:50 pm79 °FPassing clouds.7 mph61%29.86 "HgN/A
4:20 pm79 °FPartly sunny.8 mph58%29.86 "HgN/A
3:50 pm79 °FPassing clouds.8 mph61%29.86 "HgN/A
3:20 pm79 °FLight rain. Clear.7 mph65%29.89 "HgN/A
2:50 pm77 °FBroken clouds.6 mph65%29.89 "HgN/A
2:20 pm77 °FBroken clouds.7 mph65%29.89 "HgN/A
1:50 pm77 °FPartly sunny.8 mph65%29.92 "HgN/A
1:20 pm77 °FBroken clouds.9 mph61%29.95 "HgN/A
Weather by CustomWeather, © 2017

See weather overviewHow to use our weather pages